Tracking 29892 objects as of 21-Nov-2024
HD Live streaming from Space Station
objects crossing your sky now

STARLINK-5093

Track STARLINK-5093 now!
10-day predictions
STARLINK-5093 is classified as:


NORAD ID: 56332
Int'l Code: 2023-058R
Perigee: 569.5 km
Apogee: 570.9 km
Inclination: 97.7 °
Period: 95.9 minutes
Semi major axis: 6941 km
RCS: Unknown
Launch date: April 27, 2023
Source: United States (US)
Launch site: AIR FORCE WESTERN TEST RANGE (AFWTR)
Your satellite tracking list
Your tracking list is empty




NASA's NSSDC Master Catalog

Two Line Element Set (TLE):
1 56332U 23058R   24326.16567243  .00002687  00000-0  21372-3 0  9999
2 56332  97.6569 324.6990 0001018 118.1579 241.9749 15.01257167 86597
Source of the keplerian elements: AFSPC